• In Germany
  • List of Countries
  • For 7 days
  • Water Temperature
  • Satellite Maps
  • Weather Map
  • Weather Widgets
  • user-avatar
    Login

    Hourly Weather Hadera

    Today, 23 October, Tuesday

    Time Temperature Precipitation Wind Pressure Humidity
    00:00 +21°C° 0 mm 4 mps 718 mmHg 78%
    01:00 +20°C° 0 mm 4 mps 718 mmHg 79%
    02:00 +20°C° 0 mm 4 mps 717 mmHg 80%
    03:00 +20°C° 0.2 mm 4 mps 717 mmHg 80%
    04:00 +20°C° 0.2 mm 4 mps 717 mmHg 81%
    05:00 +20°C° 0.2 mm 4 mps 717 mmHg 82%
    06:00 +21°C° 0.2 mm 4 mps 717 mmHg 78%
    07:00 +22°C° 0.2 mm 4 mps 717 mmHg 74%
    08:00 +23°C° 0.2 mm 4 mps 717 mmHg 70%
    09:00 +23°C° 0.5 mm 4 mps 717 mmHg 65%
    10:00 +25°C° 0.5 mm 4 mps 717 mmHg 60%
    11:00 +26°C° 0.5 mm 4 mps 717 mmHg 56%
    12:00 +26°C° 0.6 mm 4 mps 717 mmHg 56%
    13:00 +26°C° 0.6 mm 4 mps 716 mmHg 56%
    14:00 +26°C° 0.6 mm 4 mps 716 mmHg 56%
    15:00 +25°C° 0.4 mm 3 mps 716 mmHg 60%
    16:00 +25°C° 0.4 mm 3 mps 715 mmHg 64%
    17:00 +24°C° 0.4 mm 3 mps 715 mmHg 67%
    18:00 +23°C° 0.3 mm 2 mps 715 mmHg 70%
    19:00 +23°C° 0.3 mm 2 mps 715 mmHg 73%
    20:00 +21°C° 0.3 mm 2 mps 715 mmHg 75%
    21:00 +21°C° 0.1 mm 2 mps 715 mmHg 75%
    22:00 +21°C° 0.1 mm 2 mps 715 mmHg 76%
    23:00 +22°C° 0.1 mm 1 mps 715 mmHg 76%

    Tomorrow, 24 October, Wednesday

    Time Temperature Precipitation Wind Pressure Humidity
    00:00 +22°C° 0 mm 1 mps 715 mmHg 76%
    01:00 +22°C° 0 mm 1 mps 715 mmHg 77%
    02:00 +22°C° 0 mm 1 mps 714 mmHg 77%
    03:00 +21°C° 0.1 mm 1 mps 714 mmHg 77%
    04:00 +21°C° 0.1 mm 1 mps 714 mmHg 77%
    05:00 +21°C° 0.1 mm 1 mps 714 mmHg 77%
    06:00 +21°C° 0 mm 2 mps 714 mmHg 71%
    07:00 +23°C° 0 mm 2 mps 714 mmHg 65%
    08:00 +24°C° 0 mm 2 mps 714 mmHg 59%
    09:00 +24°C° 0.1 mm 2 mps 714 mmHg 55%
    10:00 +25°C° 0.1 mm 2 mps 714 mmHg 51%
    11:00 +26°C° 0.1 mm 2 mps 714 mmHg 46%
    12:00 +26°C° 0.3 mm 3 mps 714 mmHg 48%
    13:00 +26°C° 0.3 mm 3 mps 713 mmHg 49%
    14:00 +26°C° 0.3 mm 4 mps 713 mmHg 50%
    15:00 +25°C° 0.7 mm 4 mps 713 mmHg 57%
    16:00 +24°C° 0.7 mm 3 mps 712 mmHg 63%
    17:00 +21°C° 0.7 mm 3 mps 712 mmHg 70%
    18:00 +21°C° 0.2 mm 4 mps 712 mmHg 72%
    19:00 +21°C° 0.2 mm 4 mps 713 mmHg 75%
    20:00 +20°C° 0.2 mm 5 mps 713 mmHg 77%
    21:00 +20°C° 0.3 mm 5 mps 713 mmHg 78%
    22:00 +20°C° 0.3 mm 5 mps 712 mmHg 79%
    23:00 +20°C° 0.3 mm 5 mps 712 mmHg 79%

    Day after tomorrow, 25 October, Thursday

    Time Temperature Precipitation Wind Pressure Humidity
    00:00 +19°C° 1.1 mm 6 mps 712 mmHg 80%
    01:00 +19°C° 1.1 mm 6 mps 712 mmHg 81%
    02:00 +17°C° 1.1 mm 7 mps 712 mmHg 82%
    03:00 +17°C° 0.8 mm 7 mps 711 mmHg 83%
    04:00 +17°C° 0.8 mm 7 mps 711 mmHg 83%
    05:00 +17°C° 0.8 mm 7 mps 710 mmHg 83%
    06:00 +18°C° 0.6 mm 7 mps 711 mmHg 81%
    07:00 +18°C° 0.6 mm 8 mps 711 mmHg 78%
    08:00 +18°C° 0.6 mm 8 mps 711 mmHg 76%
    09:00 +19°C° 0.7 mm 9 mps 711 mmHg 75%
    10:00 +19°C° 0.7 mm 10 mps 711 mmHg 75%
    11:00 +19°C° 0.7 mm 10 mps 711 mmHg 74%
    12:00 +19°C° 0.3 mm 11 mps 710 mmHg 71%
    13:00 +21°C° 0.3 mm 11 mps 710 mmHg 68%
    14:00 +21°C° 0.3 mm 12 mps 710 mmHg 65%
    15:00 +19°C° 0 mm 12 mps 710 mmHg 64%
    16:00 +19°C° 0 mm 12 mps 710 mmHg 63%
    17:00 +18°C° 0 mm 12 mps 710 mmHg 62%
    18:00 +17°C° 0 mm 11 mps 710 mmHg 63%
    19:00 +16°C° 0 mm 11 mps 711 mmHg 64%
    20:00 +16°C° 0 mm 10 mps 711 mmHg 65%
    21:00 +14°C° 0.1 mm 10 mps 712 mmHg 66%
    22:00 +15°C° 0.1 mm 9 mps 712 mmHg 68%
    23:00 +15°C° 0.1 mm 8 mps 713 mmHg 70%

    26 October, Friday

    Time Temperature Precipitation Wind Pressure Humidity
    00:00 +14°C° 0 mm 7 mps 713 mmHg 70%
    01:00 +14°C° 0 mm 7 mps 714 mmHg 70%
    02:00 +13°C° 0 mm 6 mps 714 mmHg 69%
    03:00 +13°C° 0 mm 5 mps 715 mmHg 68%
    04:00 +13°C° 0 mm 5 mps 715 mmHg 67%
    05:00 +12°C° 0 mm 4 mps 716 mmHg 66%
    06:00 +13°C° 0 mm 3 mps 717 mmHg 61%
    07:00 +14°C° 0 mm 3 mps 717 mmHg 57%
    08:00 +16°C° 0 mm 2 mps 718 mmHg 52%
    09:00 +17°C° 0 mm 2 mps 718 mmHg 48%
    10:00 +18°C° 0 mm 2 mps 719 mmHg 45%
    11:00 +18°C° 0 mm 2 mps 719 mmHg 41%
    12:00 +19°C° 0 mm 2 mps 719 mmHg 41%
    13:00 +19°C° 0 mm 2 mps 719 mmHg 41%
    14:00 +19°C° 0 mm 3 mps 719 mmHg 42%
    15:00 +18°C° 0 mm 3 mps 719 mmHg 45%
    16:00 +18°C° 0 mm 3 mps 720 mmHg 48%
    17:00 +17°C° 0 mm 3 mps 720 mmHg 51%
    18:00 +17°C° 0 mm 2 mps 720 mmHg 53%
    19:00 +16°C° 0 mm 2 mps 721 mmHg 54%
    20:00 +16°C° 0 mm 2 mps 721 mmHg 56%
    21:00 +16°C° 0 mm 2 mps 721 mmHg 57%
    22:00 +15°C° 0 mm 2 mps 722 mmHg 58%
    23:00 +15°C° 0 mm 2 mps 722 mmHg 59%

    27 October, Saturday

    Time Temperature Precipitation Wind Pressure Humidity
    00:00 +15°C° 0 mm 2 mps 722 mmHg 60%
    01:00 +15°C° 0 mm 2 mps 722 mmHg 62%
    02:00 +15°C° 0 mm 2 mps 722 mmHg 63%
    03:00 +14°C° 0 mm 2 mps 722 mmHg 65%
    04:00 +14°C° 0 mm 2 mps 722 mmHg 67%
    05:00 +14°C° 0 mm 2 mps 722 mmHg 69%
    06:00 +15°C° 0 mm 2 mps 722 mmHg 64%
    07:00 +16°C° 0 mm 3 mps 723 mmHg 60%
    08:00 +18°C° 0 mm 3 mps 723 mmHg 55%
    09:00 +19°C° 0 mm 3 mps 723 mmHg 50%
    10:00 +19°C° 0 mm 2 mps 723 mmHg 45%
    11:00 +20°C° 0 mm 2 mps 724 mmHg 40%
    12:00 +20°C° 0 mm 2 mps 723 mmHg 40%
    13:00 +21°C° 0 mm 2 mps 723 mmHg 40%
    14:00 +21°C° 0 mm 2 mps 723 mmHg 40%
    15:00 +20°C° 0 mm 2 mps 722 mmHg 45%
    16:00 +19°C° 0 mm 2 mps 722 mmHg 49%
    17:00 +18°C° 0 mm 2 mps 722 mmHg 53%
    18:00 +18°C° 0 mm 2 mps 722 mmHg 56%
    19:00 +18°C° 0 mm 2 mps 722 mmHg 59%
    20:00 +17°C° 0 mm 2 mps 723 mmHg 62%
    21:00 +17°C° 0 mm 2 mps 723 mmHg 63%
    22:00 +17°C° 0 mm 2 mps 722 mmHg 63%
    23:00 +17°C° 0 mm 2 mps 722 mmHg 64%

    28 October, Sunday

    Time Temperature Precipitation Wind Pressure Humidity
    00:00 +16°C° 0 mm 3 mps 722 mmHg 62%
    01:00 +16°C° 0 mm 3 mps 722 mmHg 60%
    02:00 +16°C° 0 mm 3 mps 722 mmHg 59%
    03:00 +16°C° 0 mm 3 mps 722 mmHg 58%
    04:00 +16°C° 0 mm 3 mps 722 mmHg 57%
    05:00 +14°C° 0 mm 3 mps 721 mmHg 56%
    06:00 +17°C° 0 mm 3 mps 722 mmHg 54%
    07:00 +18°C° 0 mm 3 mps 722 mmHg 52%
    08:00 +19°C° 0 mm 4 mps 722 mmHg 49%
    09:00 +20°C° 0 mm 3 mps 722 mmHg 47%
    10:00 +21°C° 0 mm 3 mps 722 mmHg 44%
    11:00 +22°C° 0 mm 3 mps 722 mmHg 41%
    12:00 +22°C° 0 mm 3 mps 721 mmHg 41%
    13:00 +24°C° 0 mm 3 mps 721 mmHg 40%
    14:00 +24°C° 0 mm 3 mps 721 mmHg 40%
    15:00 +22°C° 0 mm 3 mps 720 mmHg 44%
    16:00 +21°C° 0 mm 4 mps 720 mmHg 48%
    17:00 +20°C° 0 mm 4 mps 720 mmHg 52%
    18:00 +20°C° 0 mm 4 mps 720 mmHg 53%
    19:00 +19°C° 0 mm 4 mps 720 mmHg 55%
    20:00 +18°C° 0 mm 3 mps 720 mmHg 57%
    21:00 +18°C° 0 mm 4 mps 720 mmHg 56%
    22:00 +18°C° 0 mm 4 mps 720 mmHg 56%
    23:00 +18°C° 0 mm 4 mps 720 mmHg 56%

    29 October, Monday

    Time Temperature Precipitation Wind Pressure Humidity
    00:00 +18°C° 0 mm 4 mps 720 mmHg 55%
    01:00 +17°C° 0 mm 4 mps 719 mmHg 54%
    02:00 +17°C° 0 mm 4 mps 719 mmHg 53%
    03:00 +17°C° 0 mm 4 mps 719 mmHg 54%
    04:00 +17°C° 0 mm 4 mps 719 mmHg 54%
    05:00 +17°C° 0 mm 4 mps 719 mmHg 55%
    06:00 +18°C° 0 mm 4 mps 719 mmHg 53%
    07:00 +19°C° 0 mm 4 mps 719 mmHg 51%
    08:00 +20°C° 0 mm 4 mps 719 mmHg 49%
    09:00 +21°C° 0 mm 4 mps 719 mmHg 44%
    10:00 +24°C° 0 mm 3 mps 719 mmHg 40%
    11:00 +25°C° 0 mm 3 mps 720 mmHg 35%
    12:00 +25°C° 0 mm 3 mps 719 mmHg 35%
    13:00 +25°C° 0 mm 3 mps 719 mmHg 35%
    14:00 +25°C° 0 mm 3 mps 719 mmHg 34%
    15:00 +24°C° 0 mm 3 mps 718 mmHg 40%
    16:00 +22°C° 0 mm 3 mps 718 mmHg 45%
    17:00 +21°C° 0 mm 3 mps 718 mmHg 50%
    18:00 +20°C° 0 mm 3 mps 718 mmHg 51%
    19:00 +20°C° 0 mm 3 mps 719 mmHg 53%
    20:00 +19°C° 0 mm 3 mps 719 mmHg 55%
    21:00 +19°C° 0 mm 3 mps 719 mmHg 55%
    22:00 +18°C° 0 mm 3 mps 719 mmHg 55%
    23:00 +18°C° 0 mm 3 mps 719 mmHg 55%
    Show more